Theta_e
332 332 332 332 332 331 331 331 333 332 331 331 330 330 329 326 324 323 322 321 320 320
331 332 331 332 332 332 332 331 332 331 330 330 330 329 328 325 322 321 321 321 321 320
329 331 332 332 331 331 332 331 330 330 330 329 329 329 326 324 323 321 320 320 320 320
328 329 330 330 331 331 331 330 329 328 328 328 327 326 324 322 321 320 319 320 318 318
326 327 327 328 329 330 329 329 329 328 327 326 325 324 323 322 320 319 318 318 318 317
324 324 325 326 327 327 327 327 327 326 324 323 323 322 322 321 318 318 316 315 315 314
321 322 323 324 324 324 325 324 323 323 322 321 318 315 311 310 311 309 309 307 306 307
319 321 321 321 321 321 320 318 317 316 315 314 313 309 306 305 306 304 303 302 302 302
317 317 317 318 316 312 310 311 308 306 305 304 299 295 297 300 301 300 299 298 299 298
313 310 308 304 302 301 303 303 301 301 301 299 298 294 295 294 299 299 299 297 294 293
300 300 299 299 298 298 299 298 297 297 298 297 295 294 294 292 297 297 296 293 292 292
297 296 296 295 296 297 295 295 294 293 293 292 290 292 293 293 291 290 290 290 290 291
297 295 295 295 294 293 293 291 290 289 290 289 289 292 292 292 289 287 287 287 287 287
294 294 295 294 292 291 289 289 288 288 288 288 288 290 293 292 289 289 288 287 286 287
Wind_Speed
22 14 14 15 12 11 11 11 12 13 14 14 13 12 11 10 9 8 8 11 8 7
19 20 16 17 15 12 12 10 12 13 13 13 12 12 11 7 8 8 8 9 9 8
19 19 18 15 16 15 13 13 11 12 13 12 12 11 12 8 8 9 7 8 9 8
17 18 17 16 15 14 13 13 13 12 12 12 12 12 11 8 7 9 10 6 6 7
17 17 17 16 15 14 14 13 13 13 12 11 12 11 11 11 8 11 8 8 7 8
17 17 17 16 15 14 14 13 12 11 12 13 12 12 11 10 6 5 2 2 1 3
17 18 16 15 14 14 13 12 11 11 12 11 7 5 6 6 5 4 3 3 2 2
16 15 14 14 13 11 11 10 11 10 8 7 7 5 7 6 6 6 4 4 3 3
14 14 14 11 11 10 10 10 8 8 8 9 5 11 9 9 7 6 7 7 5 3
12 11 10 10 10 10 11 10 9 9 9 8 7 12 11 9 5 6 6 7 5 4
6 9 9 11 12 11 9 10 10 8 8 8 7 12 11 8 5 4 3 4 5 4
10 11 11 12 11 9 9 8 8 7 9 10 8 13 12 9 5 6 5 4 3 4
14 14 14 13 12 9 9 9 7 8 9 8 9 12 13 9 5 6 4 3 4 4
12 13 12 11 8 11 9 9 9 8 6 6 8 9 14 15 8 6 6 5 4 2
Wind_Direction
213 218 218 216 214 214 212 209 205 204 209 212 216 218 213 224 227 223 225 231 230 237
211 215 216 214 216 215 210 212 205 205 205 210 209 214 216 210 213 210 221 225 227 228
212 212 215 215 214 213 212 206 205 203 206 205 210 209 217 214 201 212 217 225 220 225
211 211 211 211 213 209 207 207 205 206 208 208 206 211 215 203 204 215 230 212 214 233
212 208 207 209 208 204 206 204 204 205 206 204 208 211 209 209 205 222 219 215 211 225
208 208 204 202 202 201 199 201 202 200 200 206 208 207 214 219 197 199 170 124 78 55
205 204 201 197 196 194 193 193 187 192 199 199 181 160 143 148 175 166 167 129 104 140
205 204 198 192 189 181 180 176 175 175 176 162 176 169 159 155 173 181 185 167 183 201
197 196 190 178 170 164 168 171 157 163 162 163 138 149 160 158 175 171 200 201 180 190
194 181 170 154 156 162 165 157 163 163 157 156 147 165 166 174 163 163 193 187 167 179
177 168 164 164 161 157 160 162 161 157 156 146 151 163 166 161 151 147 167 167 160 161
176 178 171 169 169 162 150 152 162 156 153 151 152 165 162 157 143 138 161 143 150 168
184 175 182 172 164 163 161 159 149 154 164 155 157 170 167 157 141 135 148 151 145 194
187 182 171 157 150 154 154 150 155 151 151 152 161 171 170 164 157 165 159 166 157 180